Powrót do katalogu

STARLINK-37371

AktywnyŁącznośćVLEO
NORAD 68977·PAYLOAD·🇺🇸 United States

Wystrzelony May 1, 2026 z Cape Canaveral Space Force Station

Loading…

Następne Przeloty (najbliższe 24 godziny)

TLE

ŚwieżeSource: CelesTrak SupGP

Epoka: Sep 14, 2026, 23:32 UTC

1 68977C 26099AC  26257.98104167  .00026299  00000+0  77721-3 0  2572
2 68977  53.1566 101.2652 0001282  84.1230 197.0276 15.34369729    15

Śledź STARLINK-37371 w czasie rzeczywistym z AllMySat

Download on the App Store